Lexington Weather

Lexington, Massachusetts, USA

45°F
5/12/2021 3:35am 
  • Lexington Conditions: Clear
  • Temperature: 45.0°F / 7.2°CColder 1.2°F than last hour.
  • Dew Point: 32.4°FIncreased 1.5°Fsince last hour.
  • Relative Humidity: 61%Increased 6.0% since last hour.
  • Wind: Wind from W W 1 mph, 10-min avg: 1 mph, gust: 5 mph
  • Barometer: 29.92 in Steady
  • Visibility: 10 miles
  • Rain Today: 0.00 in
  •   

Regional Weather Roundup
for Boston / Norton, MA

        
000
ASUS41 KBOX 101404
RWRBOX

REGIONAL WEATHER ROUNDUP
NATIONAL WEATHER SERVICE BOSTON/NORTON MA
1000 AM EDT MON MAY 10 2021

NOTE:  "FAIR" INDICATES FEW OR NO CLOUDS BELOW 12,000 FEET WITH NO 
SIGNIFICANT WEATHER AND/OR OBSTRUCTIONS TO VISIBILITY.

MAZALL-101500-
EASTERN MASSACHUSETTS
  
CITY           SKY/WX    TMP DP  RH WIND       PRES   REMARKS
BOSTON         CLOUDY    54  45  71 NE9       29.83R                  
BEVERLY        CLOUDY    54  45  71 N10       29.81S                  
LAWRENCE       CLOUDY    53  45  74 NW8       29.84S                  
BEDFORD        CLOUDY    54  45  71 N8        29.82R                  
BLUE HILL        N/A     49  44  83 NE9       29.80R                  
NORWOOD        CLOUDY    54  43  66 NE8       29.82R                  
MARSHFIELD     CLOUDY    54  48  82 NE6       29.82R                  
PLYMOUTH       CLOUDY    50  46  86 VRB6      29.80R                  
TAUNTON        CLOUDY    52  46  80 VRB5      29.82R                  
NEW BEDFORD    CLOUDY    50  46  86 N8        29.81R                  
$$

MAZALL-101500-
CAPE COD AND THE ISLANDS
  
CITY           SKY/WX    TMP DP  RH WIND       PRES   REMARKS
FALMOUTH       CLOUDY    50  46  87 NE14      29.80R                  
HYANNIS        CLOUDY    50  46  86 N10       29.78R                  
CHATHAM        CLOUDY    49  45  86 NE7       29.80R                  
PROVINCETOWN   CLOUDY    49  48  97 NE9       29.82R                  
NANTUCKET      CLOUDY    50  48  93 N13       29.77R                  
MARTHAS VNYRD  CLOUDY    51  47  86 N13       29.78S                  
$$
 
MAZALL-101500-
CENTRAL AND WESTERN MASSACHUSETTS
  
CITY           SKY/WX    TMP DP  RH WIND       PRES   REMARKS
WORCESTER      CLOUDY    50  42  74 N7        29.83R                  
FITCHBURG      CLOUDY    53  44  71 N6        29.84R                  
ORANGE         CLOUDY    51  43  74 N7        29.86R                  
SPRINGFIELD    CLOUDY    51  46  83 NW10      29.84R                  
WESTFIELD      CLOUDY    50  46  86 N9        29.85R                  
NORTH ADAMS    CLOUDY    49  43  80 SW3       29.86S                  
PITTSFIELD     CLOUDY    48  41  76 N5        29.84R                  
$$
 
RIZALL-101500-
RHODE ISLAND
  
CITY           SKY/WX    TMP DP  RH WIND       PRES   REMARKS
PROVIDENCE     CLOUDY    53  47  79 N9        29.83R                  
NEWPORT        CLOUDY    49  46  90 NE9       29.81R                  
BLOCK ISLAND   CLOUDY    49  46  90 N6        29.84R                  
SMITHFIELD     CLOUDY    51  48  89 NE7       29.83R                  
WESTERLY       CLOUDY    49  45  86 N6        29.83R                  
$$
 
CTZALL-101500-
CONNECTICUT
  
CITY           SKY/WX    TMP DP  RH WIND       PRES   REMARKS
BRADLEY INTL   CLOUDY    52  45  77 N6        29.85R                  
HARTFORD       CLOUDY    52  45  77 N9        29.86R                  
BRIDGEPORT     CLOUDY    53  46  77 NW9       29.87R                  
DANBURY        CLOUDY    52  44  74 NW5       29.89R                  
GROTON         CLOUDY    51  46  83 N7        29.84R                  
NEW HAVEN      CLOUDY    56  48  74 N9        29.86R                  
CHESTER        CLOUDY    52  46  82 N6G13     29.85R                  
MERIDEN        CLOUDY    52  45  77 N6        29.86R                  
WILLIMANTIC    CLOUDY    51  46  83 NE5       29.84R                  
OXFORD         CLOUDY    49  49 100 W5        29.87R                  
$$

MEZ002-015-021-024-NHZ003-005-008-011-012-014-VTZ005-008-101500-
NORTHERN NEW ENGLAND
  
CITY           SKY/WX    TMP DP  RH WIND       PRES   REMARKS
PORTLAND ME    PTSUNNY   57  46  66 VRB7      29.82F                  
BANGOR ME      PTSUNNY   57  40  52 VRB5      29.82S                  
CONCORD NH     CLOUDY    53  44  71 N9        29.83F                  
MANCHESTER NH  CLOUDY    55  41  59 NW7       29.82F                  
NASHUA NH      CLOUDY    53  47  79 NW8       29.84S                  
PORTSMOUTH NH  CLOUDY    55  45  67 NW13      29.83S                  
JAFFREY NH     CLOUDY    51  44  77 VRB3      29.84R                  
KEENE NH       CLOUDY    51  43  74 N9        29.85S                  
BURLINGTON VT  PTSUNNY   56  39  53 N5        29.87F                  
MT. WASHINGTON MOSUNNY   32  28  86 N7          N/A  WCI  26          
$$

NYZ052-076-101500-
EASTERN NEW YORK
  
CITY           SKY/WX    TMP DP  RH WIND       PRES   REMARKS
ALBANY         CLOUDY    49  45  86 N5        29.87F                  
NEW YORK CITY  CLOUDY    53  44  71 NW12      29.89R                  
$$
 
ANZALL-101500-
MARINE OBSERVATIONS
  
STATION/POSITION TIME  TEMP    WIND        PRES    VSBY  WAVE
                       AIR SEA DIR/SP/G                  HT/PER
                 (UTC) (F)     (DEG/KT/KT) (MB)    (MI)  (FT/S)
BOSTON BUOY      1340   49 48   10/ 12/ 14 1009.3R
BUZZARDS BAY     1300           20/ 13/ 14 1009.6R
NANTUCKET SOUND  1340      52                N/A
MASS BAY-STELLWA 1304   50      10/ 12/ 14 1008.2F  1 7/8  1/ 8
ISLE OF SHOALS   1300   49     330/  7/  8 1009.5F
S OF BLOCK IS    1326      49                N/A           3/ 4
$$

......................KEY.........................
  SKY/WX - SKY CONDITION/PRESENT WEATHER
  TMP    - TEMPERATURE IN FAHRENHEIT
  DWPT   - DEWPOINT IN FAHRENHEIT
  RH     - RELATIVE HUMIDITY IN PERCENT
  WIND   - DIRECTION AND SPEED IN MPH
  PRES   - MEAN SEA LEVEL PRESSURE IN INCHES OF HG
  WCI    - WIND CHILL INDEX
  VSB    - VISIBILITY IN MILES
  HX     - HEAT INDEX
  TC     - TEMPERATURE IN CELSIUS
  VRB    - VARIABLE WIND DIRECTION
  N/A    - NOT AVAILABLE
  
      

Other recent Regional Weather Roundups

Wed May 12, 3:04am

Wed May 12, 2:04am

Wed May 12, 1:04am

Wed May 12, 12:05am

Tue May 11, 11:05pm

Tue May 11, 10:04pm

Tue May 11, 9:05pm

Tue May 11, 8:05pm

Tue May 11, 7:04pm

Tue May 11, 6:04pm

Tue May 11, 5:04pm

Tue May 11, 4:05pm

Tue May 11, 3:04pm

Tue May 11, 2:05pm

Tue May 11, 1:04pm

Tue May 11, 12:05pm

Tue May 11, 11:05am

Tue May 11, 10:04am

Tue May 11, 9:04am

Tue May 11, 8:04am

Tue May 11, 7:05am

Tue May 11, 6:04am

Tue May 11, 5:04am

Tue May 11, 4:04am

Tue May 11, 3:04am

Tue May 11, 2:04am

Tue May 11, 1:04am

Tue May 11, 12:04am

Mon May 10, 11:04pm

Mon May 10, 10:04pm

Mon May 10, 9:05pm

Mon May 10, 8:04pm

Mon May 10, 7:05pm

Mon May 10, 6:04pm

Mon May 10, 5:04pm

Mon May 10, 4:04pm

Mon May 10, 3:04pm

Mon May 10, 2:04pm

Mon May 10, 1:04pm

Mon May 10, 12:04pm

Mon May 10, 11:05am

Mon May 10, 9:04am

Mon May 10, 8:04am

Mon May 10, 7:04am

Mon May 10, 6:04am

Mon May 10, 5:05am

Mon May 10, 4:04am

Mon May 10, 3:04am

Mon May 10, 2:04am

Mon May 10, 1:04am

Mon May 10, 12:04am

Sun May 9, 11:04pm

Sun May 9, 10:04pm

Sun May 9, 9:04pm

Sun May 9, 8:04pm

Sun May 9, 7:05pm

Sun May 9, 6:04pm

Sun May 9, 5:04pm

Sun May 9, 4:04pm

Sun May 9, 3:04pm

Sun May 9, 2:04pm

Sun May 9, 1:05pm

Sun May 9, 12:04pm

Sun May 9, 11:05am

Sun May 9, 10:04am

Sun May 9, 9:04am

Sun May 9, 8:04am

Sun May 9, 7:04am

Sun May 9, 6:04am

Sun May 9, 5:04am

Sun May 9, 4:04am

Sun May 9, 3:04am

Sun May 9, 2:04am

Sun May 9, 1:05am

Sun May 9, 12:04am

Sat May 8, 11:05pm

Sat May 8, 10:04pm

Sat May 8, 9:05pm

Sat May 8, 8:04pm

Sat May 8, 7:04pm

Sat May 8, 6:04pm

Sat May 8, 5:05pm

Sat May 8, 4:04pm

Sat May 8, 3:05pm

Sat May 8, 2:05pm

Sat May 8, 1:05pm

Sat May 8, 12:04pm

Sat May 8, 11:05am

Sat May 8, 10:04am

Sat May 8, 9:04am

Sat May 8, 8:04am

Sat May 8, 7:04am

Sat May 8, 6:04am

Sat May 8, 5:04am

Sat May 8, 4:04am

Sat May 8, 3:04am

Sat May 8, 2:04am

Sat May 8, 1:05am

Sat May 8, 12:04am

Fri May 7, 11:04pm

Fri May 7, 10:05pm

Fri May 7, 9:04pm

Fri May 7, 8:04pm

Fri May 7, 7:05pm

Fri May 7, 6:04pm

Fri May 7, 5:05pm

Fri May 7, 4:04pm

Fri May 7, 3:04pm

Fri May 7, 2:05pm

Fri May 7, 1:04pm

Fri May 7, 12:04pm

Fri May 7, 11:05am

Fri May 7, 10:04am

Fri May 7, 9:04am

Fri May 7, 8:05am

Fri May 7, 7:04am

Fri May 7, 6:04am

Fri May 7, 5:04am

Fri May 7, 4:04am

Fri May 7, 3:04am

Fri May 7, 2:05am

Fri May 7, 1:04am

Fri May 7, 12:05am

Thu May 6, 11:04pm

Thu May 6, 10:04pm

Thu May 6, 9:05pm

Thu May 6, 8:04pm

Thu May 6, 7:04pm

Thu May 6, 6:04pm

Thu May 6, 5:05pm

Thu May 6, 4:04pm

Thu May 6, 3:04pm

Thu May 6, 2:05pm

Thu May 6, 1:04pm

Thu May 6, 12:04pm

Thu May 6, 11:04am

Thu May 6, 10:04am

Thu May 6, 9:04am

Thu May 6, 8:04am

Thu May 6, 7:04am

Thu May 6, 6:04am

Thu May 6, 5:04am

Thu May 6, 4:04am

Thu May 6, 3:04am

Thu May 6, 2:05am

Thu May 6, 1:04am

Thu May 6, 12:05am

Wed May 5, 11:04pm

Wed May 5, 10:04pm

Wed May 5, 9:05pm

Wed May 5, 8:04pm

Wed May 5, 7:05pm

Wed May 5, 6:04pm

Wed May 5, 5:04pm

Wed May 5, 4:04pm

Wed May 5, 3:04pm

Wed May 5, 2:05pm

Wed May 5, 1:05pm

Wed May 5, 12:04pm

Wed May 5, 11:05am

Wed May 5, 10:04am

Wed May 5, 9:04am

Wed May 5, 8:04am

Wed May 5, 7:04am

Wed May 5, 6:05am

Wed May 5, 5:04am

Wed May 5, 4:04am

Meta data:

ID: e773a5a3-d865-47b3-93a8-6de4db53a9d6
Link: https://api.weather.gov/products/e773a5a3-d865-47b3-93a8-6de4db53a9d6